When you browse on this site, cookies collect data to enhance your experience and personalize the content and advertising you see.
Visit our Privacy Policy to learn more. By continuing to use the site, you agree to this use of cookies and data.
  • In Latvia
  • List of Countries
  • For 7 days
  • Water Temperature
  • Weather Map
  • Weather Widgets
  • user-avatar
    Login

    Hourly Weather Strzelin

    Today, 27 May, Wednesday

    Time Temperature Precipitation Wind Pressure Humidity
    00:00 +8°C° 0 mm 2 mps 759 mmHg 92%
    01:00 +8°C° 0 mm 2 mps 759 mmHg 93%
    02:00 +8°C° 0 mm 2 mps 759 mmHg 93%
    03:00 +7°C° 0 mm 2 mps 759 mmHg 94%
    04:00 +7°C° 0 mm 2 mps 759 mmHg 94%
    05:00 +9°C° 0 mm 2 mps 759 mmHg 92%
    06:00 +10°C° 0 mm 2 mps 759 mmHg 90%
    07:00 +13°C° 0 mm 2 mps 759 mmHg 87%
    08:00 +13°C° 0.1 mm 3 mps 759 mmHg 81%
    09:00 +16°C° 0.1 mm 3 mps 759 mmHg 75%
    10:00 +17°C° 0.1 mm 3 mps 759 mmHg 69%
    11:00 +18°C° 0.1 mm 3 mps 758 mmHg 66%
    12:00 +18°C° 0.1 mm 3 mps 758 mmHg 64%
    13:00 +19°C° 0.1 mm 3 mps 757 mmHg 61%
    14:00 +19°C° 0.1 mm 3 mps 757 mmHg 62%
    15:00 +19°C° 0.1 mm 3 mps 757 mmHg 63%
    16:00 +19°C° 0.1 mm 3 mps 756 mmHg 63%
    17:00 +18°C° 0.1 mm 3 mps 756 mmHg 68%
    18:00 +16°C° 0.1 mm 2 mps 756 mmHg 72%
    19:00 +15°C° 0.1 mm 1 mps 756 mmHg 77%
    20:00 +14°C° 0 mm 1 mps 756 mmHg 79%
    21:00 +13°C° 0 mm 1 mps 756 mmHg 82%
    22:00 +11°C° 0 mm 1 mps 756 mmHg 84%
    23:00 +11°C° 0 mm 1 mps 755 mmHg 83%

    Tomorrow, 28 May, Thursday

    Time Temperature Precipitation Wind Pressure Humidity
    00:00 +11°C° 0 mm 1 mps 755 mmHg 83%
    01:00 +11°C° 0 mm 1 mps 755 mmHg 82%
    02:00 +10°C° 0.1 mm 2 mps 755 mmHg 84%
    03:00 +10°C° 0.1 mm 2 mps 755 mmHg 86%
    04:00 +10°C° 0.1 mm 2 mps 754 mmHg 88%
    05:00 +10°C° 0.6 mm 2 mps 754 mmHg 91%
    06:00 +12°C° 0.6 mm 2 mps 754 mmHg 93%
    07:00 +11°C° 0.6 mm 3 mps 754 mmHg 95%
    08:00 +11°C° 1 mm 3 mps 754 mmHg 95%
    09:00 +11°C° 1 mm 4 mps 754 mmHg 94%
    10:00 +9°C° 1 mm 5 mps 754 mmHg 93%
    11:00 +12°C° 0.5 mm 5 mps 754 mmHg 87%
    12:00 +13°C° 0.5 mm 4 mps 754 mmHg 80%
    13:00 +14°C° 0.5 mm 4 mps 753 mmHg 73%
    14:00 +14°C° 0.2 mm 4 mps 753 mmHg 72%
    15:00 +15°C° 0.2 mm 4 mps 753 mmHg 71%
    16:00 +15°C° 0.2 mm 4 mps 753 mmHg 70%
    17:00 +14°C° 0.1 mm 3 mps 753 mmHg 75%
    18:00 +13°C° 0.1 mm 3 mps 753 mmHg 80%
    19:00 +12°C° 0.1 mm 3 mps 753 mmHg 84%
    20:00 +11°C° 0 mm 3 mps 753 mmHg 87%
    21:00 +10°C° 0 mm 3 mps 753 mmHg 90%
    22:00 +9°C° 0 mm 2 mps 753 mmHg 92%
    23:00 +9°C° 0 mm 2 mps 753 mmHg 93%

    Day after tomorrow, 29 May, Friday

    Time Temperature Precipitation Wind Pressure Humidity
    00:00 +8°C° 0 mm 2 mps 753 mmHg 95%
    01:00 +8°C° 0 mm 2 mps 753 mmHg 96%
    02:00 +7°C° 0 mm 2 mps 753 mmHg 97%
    03:00 +7°C° 0 mm 3 mps 753 mmHg 97%
    04:00 +5°C° 0 mm 3 mps 753 mmHg 97%
    05:00 +7°C° 0 mm 3 mps 753 mmHg 95%
    06:00 +8°C° 0 mm 3 mps 753 mmHg 93%
    07:00 +8°C° 0 mm 4 mps 753 mmHg 90%
    08:00 +8°C° 0 mm 4 mps 753 mmHg 89%
    09:00 +10°C° 0 mm 4 mps 753 mmHg 88%
    10:00 +10°C° 0 mm 4 mps 753 mmHg 86%
    11:00 +11°C° 0.1 mm 4 mps 753 mmHg 81%
    12:00 +13°C° 0.1 mm 4 mps 753 mmHg 75%
    13:00 +14°C° 0.1 mm 5 mps 752 mmHg 69%
    14:00 +15°C° 0.1 mm 5 mps 752 mmHg 67%
    15:00 +15°C° 0.1 mm 6 mps 752 mmHg 64%
    16:00 +15°C° 0.1 mm 6 mps 751 mmHg 61%
    17:00 +14°C° 0 mm 5 mps 751 mmHg 65%
    18:00 +13°C° 0 mm 5 mps 751 mmHg 70%
    19:00 +12°C° 0 mm 4 mps 751 mmHg 74%
    20:00 +10°C° 0 mm 4 mps 751 mmHg 76%
    21:00 +9°C° 0 mm 3 mps 751 mmHg 77%
    22:00 +7°C° 0 mm 3 mps 752 mmHg 79%
    23:00 +5°C° 0 mm 3 mps 752 mmHg 81%

    30 May, Saturday

    Time Temperature Precipitation Wind Pressure Humidity
    00:00 +5°C° 0 mm 3 mps 752 mmHg 83%
    01:00 +4°C° 0 mm 3 mps 752 mmHg 86%
    02:00 +4°C° 0 mm 3 mps 752 mmHg 86%
    03:00 +4°C° 0 mm 3 mps 751 mmHg 85%
    04:00 +4°C° 0 mm 3 mps 751 mmHg 85%
    05:00 +5°C° 0 mm 3 mps 751 mmHg 82%
    06:00 +6°C° 0 mm 4 mps 751 mmHg 79%
    07:00 +7°C° 0 mm 4 mps 751 mmHg 76%
    08:00 +10°C° 0 mm 4 mps 751 mmHg 72%
    09:00 +11°C° 0 mm 4 mps 750 mmHg 69%
    10:00 +12°C° 0 mm 5 mps 750 mmHg 65%
    11:00 +13°C° 0 mm 5 mps 750 mmHg 63%
    12:00 +14°C° 0 mm 4 mps 750 mmHg 62%
    13:00 +15°C° 0 mm 4 mps 749 mmHg 60%
    14:00 +15°C° 0.1 mm 4 mps 749 mmHg 62%
    15:00 +15°C° 0.1 mm 4 mps 749 mmHg 64%
    16:00 +15°C° 0.1 mm 4 mps 748 mmHg 65%
    17:00 +14°C° 0.1 mm 4 mps 748 mmHg 71%
    18:00 +13°C° 0.1 mm 3 mps 748 mmHg 76%
    19:00 +13°C° 0.1 mm 2 mps 748 mmHg 81%
    20:00 +12°C° 0 mm 2 mps 748 mmHg 84%
    21:00 +10°C° 0 mm 2 mps 748 mmHg 87%
    22:00 +9°C° 0 mm 1 mps 749 mmHg 90%
    23:00 +8°C° 0 mm 2 mps 748 mmHg 89%

    31 May, Sunday

    Time Temperature Precipitation Wind Pressure Humidity
    00:00 +9°C° 0 mm 2 mps 748 mmHg 88%
    01:00 +9°C° 0 mm 3 mps 748 mmHg 87%
    02:00 +9°C° 0 mm 3 mps 748 mmHg 87%
    03:00 +9°C° 0 mm 3 mps 748 mmHg 87%
    04:00 +8°C° 0 mm 4 mps 748 mmHg 88%
    05:00 +8°C° 0 mm 4 mps 747 mmHg 88%
    06:00 +8°C° 0 mm 4 mps 747 mmHg 87%
    07:00 +9°C° 0 mm 5 mps 747 mmHg 87%
    08:00 +9°C° 0.1 mm 5 mps 747 mmHg 88%
    09:00 +10°C° 0.1 mm 5 mps 747 mmHg 89%
    10:00 +10°C° 0.1 mm 5 mps 747 mmHg 90%
    11:00 +10°C° 1 mm 5 mps 747 mmHg 92%
    12:00 +10°C° 1 mm 5 mps 747 mmHg 94%
    13:00 +10°C° 1 mm 5 mps 747 mmHg 96%
    14:00 +10°C° 0.3 mm 5 mps 747 mmHg 96%
    15:00 +12°C° 0.3 mm 5 mps 747 mmHg 96%
    16:00 +12°C° 0.3 mm 5 mps 747 mmHg 96%
    17:00 +12°C° 0.3 mm 5 mps 747 mmHg 96%
    18:00 +12°C° 0.3 mm 5 mps 747 mmHg 97%
    19:00 +12°C° 0.3 mm 5 mps 747 mmHg 97%
    20:00 +12°C° 0.3 mm 5 mps 748 mmHg 97%
    21:00 +12°C° 0.3 mm 5 mps 748 mmHg 98%
    22:00 +12°C° 0.3 mm 5 mps 748 mmHg 98%
    23:00 +12°C° 0.1 mm 4 mps 748 mmHg 98%

    1 June, Monday

    Time Temperature Precipitation Wind Pressure Humidity
    00:00 +13°C° 0.1 mm 4 mps 748 mmHg 98%
    01:00 +13°C° 0.1 mm 4 mps 748 mmHg 98%
    02:00 +13°C° 0.1 mm 3 mps 748 mmHg 98%
    03:00 +13°C° 0.1 mm 3 mps 748 mmHg 98%
    04:00 +13°C° 0.1 mm 3 mps 748 mmHg 98%
    05:00 +13°C° 0 mm 3 mps 748 mmHg 97%
    06:00 +14°C° 0 mm 3 mps 748 mmHg 96%
    07:00 +14°C° 0 mm 3 mps 749 mmHg 95%
    08:00 +16°C° 0.1 mm 3 mps 749 mmHg 92%
    09:00 +17°C° 0.1 mm 3 mps 749 mmHg 89%
    10:00 +18°C° 0.1 mm 3 mps 749 mmHg 86%
    11:00 +19°C° 0.5 mm 3 mps 749 mmHg 83%
    12:00 +20°C° 0.5 mm 3 mps 749 mmHg 79%
    13:00 +21°C° 0.5 mm 3 mps 749 mmHg 75%
    14:00 +21°C° 0.3 mm 4 mps 748 mmHg 74%
    15:00 +21°C° 0.3 mm 5 mps 748 mmHg 72%
    16:00 +21°C° 0.3 mm 5 mps 748 mmHg 71%
    17:00 +20°C° 0 mm 5 mps 748 mmHg 75%
    18:00 +19°C° 0 mm 4 mps 748 mmHg 78%
    19:00 +18°C° 0 mm 3 mps 748 mmHg 82%
    20:00 +16°C° 0 mm 3 mps 749 mmHg 85%
    21:00 +14°C° 0 mm 3 mps 749 mmHg 87%
    22:00 +13°C° 0 mm 2 mps 749 mmHg 90%
    23:00 +13°C° 0 mm 2 mps 749 mmHg 91%
    Show more